Total_Precipitation_Accumulation
0.22 0.18 0.18 0.12 0.17 0.24 0.32 0.34 0.27 0.29 0.44 0.22 0.37 0.38 0.36 0.44 0.59 1.29 0.90 0.30 0.25 0.41 0.38 0.15 0.29 0.34 0.34 0.24 0.38 0.50 0.66 0.66 0.64 0.55 0.40 0.67 0.52 0.67 0.78 0.68 1.20 1.27 1.19 1.18 1.17 1.14 1.12 0.40 0.70 0.38 0.41 0.56 0.27 0.15 0.07 0.09 0.16 0.09 0.62 0.07 0.38 0.13 0.36 0.53 0.35 0.32 0.31 0.26 0.30 0.24 0.14 0.17 0.22 0.23 0.06 0.13 0.49 0.26 0.40 0.56 0.71 0.43 0.58 0.43 0.39 0.27 1.10
0.25 0.18 0.18 0.22 0.19 0.31 0.31 0.52 0.25 0.15 0.28 0.95 0.46 0.40 0.46 0.68 2.19 1.10 0.93 0.44 0.46 0.47 0.43 0.33 0.19 0.13 0.13 0.22 0.29 0.27 0.67 0.75 0.68 0.60 0.58 0.91 0.67 0.70 0.56 0.39 1.04 1.02 1.03 1.20 1.35 1.12 1.83 0.44 0.42 0.47 0.21 0.71 0.12 0.08 0.16 0.04 0.41 0.15 0.56 0.53 0.26 0.62 0.58 0.35 0.82 0.67 0.81 0.63 0.42 0.50 0.47 0.22 0.22 0.23 0.22 0.06 0.11 0.12 0.19 0.10 0.28 0.17 0.39 0.46 0.44 0.40 0.98
0.23 0.21 0.24 0.15 0.17 0.30 0.32 0.23 0.20 0.14 0.23 0.44 0.57 0.61 0.61 1.08 1.47 1.39 1.04 0.55 0.51 0.77 0.54 0.42 0.22 0.30 0.22 0.24 0.27 0.44 0.53 0.59 0.61 0.66 0.74 0.76 0.83 0.67 0.47 0.32 0.71 1.39 1.16 1.22 0.83 0.91 1.52 1.12 0.37 0.45 0.48 0.80 0.03 0.03 0.03 0.06 0.24 0.12 0.13 0.24 0.26 0.42 0.88 0.51 0.87 1.03 1.16 1.20 1.37 1.54 1.26 0.67 0.72 0.31 0.21 0.18 0.14 0.41 0.33 0.51 0.56 0.26 0.35 0.28 0.39 0.98 0.73
0.21 0.25 0.15 0.25 0.24 0.25 0.18 0.14 0.20 0.12 0.19 0.31 0.45 0.61 0.69 1.26 1.65 1.13 1.11 1.32 1.14 0.21 0.37 0.35 0.65 0.34 0.32 0.27 0.31 0.35 0.64 0.45 0.49 0.50 0.78 0.59 0.77 0.55 0.39 0.28 0.32 0.76 0.93 1.26 1.17 1.04 0.46 0.94 0.95 0.74 0.74 0.35 0.09 0.02 0.06 0.17 0.13 0.14 0.11 0.32 0.51 0.80 0.50 0.57 0.52 0.87 1.31 1.26 0.99 0.83 0.66 0.90 0.85 0.76 0.44 0.41 0.24 0.22 0.22 0.26 0.37 0.69 0.66 0.33 0.69 0.52 0.77
0.18 0.16 0.17 0.14 0.10 0.14 0.13 0.14 0.13 0.15 0.16 0.31 0.70 0.52 0.80 1.05 1.49 1.07 0.89 0.48 0.61 0.70 0.33 0.39 0.27 0.46 0.54 0.72 0.37 0.48 0.45 0.53 0.51 0.44 0.99 0.59 0.66 0.40 0.73 0.54 0.72 0.74 0.85 0.92 1.11 0.85 0.59 0.48 0.66 0.81 0.84 0.50 0.24 0.03 0.14 0.19 0.12 0.09 0.28 0.32 0.66 0.84 0.84 0.53 0.66 0.94 0.90 0.82 0.79 0.90 0.75 0.84 0.63 0.53 0.60 0.48 0.31 0.25 0.34 0.26 0.54 0.62 0.46 0.63 0.73 0.52 0.19
0.25 0.18 0.14 0.13 0.18 0.18 0.19 0.30 0.27 0.15 0.16 0.17 0.53 0.71 0.65 1.34 1.77 1.33 1.13 0.93 0.57 0.58 0.99 0.32 0.73 0.26 0.38 0.69 0.33 0.47 0.50 0.53 0.96 0.74 0.78 0.97 0.42 0.66 0.44 0.43 0.44 0.59 0.95 1.09 1.25 1.21 0.73 0.61 0.42 0.72 0.79 0.37 0.50 0.58 0.17 0.18 0.13 0.10 0.38 0.38 0.64 1.37 0.85 0.81 0.82 1.03 0.73 0.69 0.76 0.78 0.98 0.86 0.82 0.82 0.79 0.70 0.59 0.44 0.54 0.32 0.31 0.51 0.49 0.68 0.77 0.81 0.46
0.28 0.22 0.18 0.14 0.20 0.18 0.18 0.17 0.19 0.14 0.14 0.17 0.56 0.59 0.46 1.56 1.54 1.49 0.50 0.85 1.01 0.67 0.59 0.39 0.38 0.66 0.43 0.72 0.39 0.53 0.40 0.61 0.80 1.50 1.15 0.91 0.75 0.49 0.94 0.57 0.49 0.51 0.57 1.11 1.21 1.05 1.44 0.75 0.96 0.77 0.79 0.60 0.64 0.82 0.37 0.31 0.15 0.22 0.31 0.53 0.68 0.87 1.00 1.14 0.85 1.09 1.00 0.96 0.55 0.51 0.79 0.76 0.75 0.67 0.70 0.63 0.64 0.60 0.61 0.57 0.52 0.53 0.58 0.43 0.52 0.49 0.66
0.21 0.22 0.19 0.17 0.18 0.20 0.22 0.20 0.27 0.12 0.22 0.26 0.44 0.51 1.35 1.63 2.44 1.63 0.80 0.57 0.55 0.48 0.45 0.64 0.63 0.61 0.33 0.57 0.50 0.53 0.49 0.60 0.59 0.91 1.15 1.01 0.62 0.54 0.81 0.84 0.54 0.53 0.50 0.69 1.18 1.22 1.47 1.53 1.15 0.89 0.48 0.68 0.43 0.90 0.59 1.00 0.38 0.23 0.56 0.53 1.07 0.77 1.04 0.65 1.04 1.49 1.39 1.07 0.49 0.46 0.78 0.78 0.74 0.54 0.75 0.63 0.84 0.66 0.55 0.79 0.79 0.78 0.71 0.42 0.43 0.55 0.92
0.33 0.25 0.19 0.18 0.24 0.21 0.19 0.27 0.24 0.21 0.30 0.58 0.42 0.80 0.99 1.55 1.77 1.85 1.24 0.75 0.77 0.67 0.39 0.51 0.74 0.60 0.52 0.58 0.52 0.36 0.48 0.65 0.75 0.97 0.56 1.08 0.92 0.66 0.85 0.86 1.15 0.67 0.67 0.80 1.07 1.27 1.02 1.10 1.03 0.41 0.83 1.10 0.65 0.99 0.77 0.33 0.50 0.36 0.52 0.60 1.28 0.68 1.30 0.85 1.39 1.30 1.08 0.79 0.54 0.55 0.64 1.03 0.77 0.69 0.60 0.64 0.81 0.87 0.52 0.62 0.64 1.08 0.95 0.80 0.74 0.60 0.66
0.25 0.22 0.20 0.25 0.21 0.20 0.24 0.32 0.27 0.20 0.33 0.77 0.49 0.71 1.14 1.28 0.89 1.17 1.44 0.73 0.33 0.49 0.26 0.51 0.48 0.91 0.70 0.52 0.46 0.63 0.30 0.33 0.45 0.59 0.29 0.65 0.82 0.74 0.80 0.89 1.17 0.98 1.09 1.11 0.79 0.92 0.85 0.65 0.88 0.31 0.48 0.29 0.93 0.55 0.74 0.89 1.16 0.84 0.65 0.97 1.27 1.10 0.89 0.95 1.11 1.44 0.92 1.15 0.47 0.83 0.90 1.18 1.41 1.66 0.88 0.71 0.64 0.70 0.50 0.50 0.52 0.60 1.48 1.82 1.17 0.93 0.75
0.19 0.21 0.19 0.22 0.25 0.18 0.24 0.34 0.31 0.41 0.58 0.88 0.85 0.77 0.87 1.37 1.31 0.73 0.68 0.59 0.21 0.42 0.43 0.46 0.42 0.91 0.59 0.63 0.56 0.32 0.37 0.42 0.59 0.97 0.74 0.37 0.71 0.63 0.73 0.90 1.06 1.13 1.06 1.11 0.67 0.86 0.71 0.78 0.30 0.17 0.24 0.21 0.57 0.44 0.69 0.39 0.38 0.84 1.16 0.94 0.67 0.64 0.90 1.16 1.46 2.15 1.25 0.96 1.38 0.90 1.17 1.65 1.55 1.33 0.98 0.75 0.98 0.71 0.76 0.66 0.60 0.73 1.15 1.92 1.36 1.23 1.13
0.17 0.17 0.16 0.15 0.20 0.25 0.24 0.35 0.37 0.41 0.51 1.12 1.04 0.85 1.25 1.21 0.88 1.12 0.87 0.54 0.26 0.36 0.51 0.44 0.36 0.32 0.43 0.23 0.52 0.53 0.50 0.49 0.69 0.65 1.23 0.66 0.73 0.57 0.58 0.82 0.93 1.35 0.83 0.81 0.66 0.67 0.61 0.56 0.42 0.21 0.18 0.45 0.52 0.48 0.36 0.39 0.69 0.67 0.68 0.95 0.89 0.81 0.99 1.16 1.61 1.54 1.49 1.46 1.21 1.48 1.59 1.36 1.82 1.16 0.91 0.58 0.69 0.47 0.47 0.51 0.55 0.79 0.84 0.92 1.13 1.29 1.07
0.26 0.23 0.17 0.17 0.17 0.19 0.32 0.31 0.37 0.32 0.35 0.86 0.82 1.13 1.21 0.96 1.53 1.18 1.05 1.13 0.56 0.50 0.59 0.53 0.23 0.28 0.39 0.42 0.44 0.39 0.37 0.44 0.52 0.63 0.74 0.71 0.74 0.41 0.60 0.64 0.78 0.68 0.32 0.66 0.34 0.49 1.20 1.43 1.12 0.59 0.55 0.42 0.51 0.51 0.45 0.56 0.55 0.49 0.66 0.65 0.78 0.65 0.78 1.20 0.98 0.93 0.92 1.05 1.58 2.12 1.55 1.58 1.26 1.35 1.17 0.93 0.83 0.75 0.77 1.09 0.52 0.48 0.82 1.17 1.21 1.75 1.44
0.28 0.27 0.23 0.26 0.27 0.31 0.28 0.36 0.33 0.28 0.38 0.65 0.84 0.93 1.21 1.27 1.51 0.98 1.02 0.98 0.56 0.66 0.93 0.57 0.31 0.42 0.48 0.61 0.67 0.56 0.43 0.55 0.53 0.48 0.65 0.60 0.59 0.84 0.49 0.48 0.36 0.19 0.35 0.31 0.52 0.80 0.91 0.88 1.04 0.96 0.95 0.86 1.40 1.10 0.60 0.92 0.76 0.65 0.70 0.71 0.51 0.94 1.29 1.04 1.41 0.98 1.77 1.15 1.37 1.01 1.28 1.29 1.27 1.32 1.60 1.39 1.90 1.49 1.60 1.93 1.15 0.74 0.99 1.59 2.17 1.95 1.71
0.35 0.29 0.30 0.29 0.44 0.59 0.42 0.37 0.33 0.28 0.35 0.47 0.59 1.02 1.44 1.30 1.48 1.59 1.30 2.10 1.16 0.96 0.65 0.76 0.49 0.68 0.82 0.66 0.62 0.61 0.60 0.57 0.61 0.60 0.41 0.51 0.96 0.86 0.72 0.26 0.09 0.25 0.42 0.65 0.93 0.87 0.92 1.15 1.12 1.14 1.06 1.21 1.44 1.12 0.79 0.86 0.36 0.80 0.83 0.60 0.60 0.73 1.50 1.58 1.51 1.17 0.93 1.61 1.92 1.28 1.32 1.40 1.05 0.95 1.24 0.93 1.02 1.06 1.05 1.25 1.59 1.31 1.88 2.14 2.64 2.79 2.25
0.40 0.42 0.44 0.43 0.41 0.61 0.54 0.50 0.46 0.34 0.50 0.59 0.90 1.49 1.45 1.08 1.05 1.51 1.68 2.02 1.90 1.29 0.63 0.69 0.71 1.06 0.86 0.71 0.74 0.82 0.86 0.73 0.66 0.57 0.63 0.63 0.56 0.82 0.66 0.46 0.20 0.44 0.48 0.59 1.62 1.25 1.11 1.05 1.06 1.15 1.34 1.19 1.07 1.36 0.78 0.83 0.72 0.54 0.56 0.56 0.83 0.81 0.93 2.04 1.57 2.34 1.20 1.43 1.59 1.60 1.45 1.34 1.50 1.62 0.95 0.97 0.75 0.82 1.20 1.11 1.20 1.46 2.05 2.44 2.80 3.33 3.25
0.42 0.43 0.48 0.45 0.42 0.57 0.52 0.42 0.28 0.32 0.47 0.73 1.05 1.46 0.98 0.74 1.40 1.55 2.01 2.23 2.32 2.02 0.81 0.82 0.89 1.72 1.01 0.89 0.69 0.72 0.76 0.93 0.81 0.69 0.64 0.63 0.60 0.63 0.60 0.33 0.61 0.48 0.77 0.96 1.25 0.93 1.09 1.06 1.58 1.46 1.30 1.09 1.16 0.73 0.70 0.90 1.14 1.02 0.81 0.92 1.16 1.20 1.45 1.00 1.30 1.24 1.14 1.34 1.90 1.87 1.08 1.70 1.54 1.60 1.19 1.12 1.23 0.75 1.19 1.79 1.71 2.01 2.39 2.79 3.00 3.29 3.31
0.48 0.52 0.65 0.52 0.51 0.44 0.34 0.40 0.47 0.36 0.44 0.45 1.08 1.41 0.61 0.84 1.10 1.24 1.84 1.86 1.90 1.14 0.73 0.61 0.99 1.00 1.01 0.79 0.80 0.53 0.54 0.63 0.80 0.64 0.67 0.41 0.53 0.62 0.61 0.48 1.18 0.41 0.49 1.20 1.29 0.77 1.00 0.97 1.42 1.39 1.43 0.89 1.34 1.17 1.44 1.06 0.93 0.81 1.21 1.38 1.48 0.77 0.91 0.97 0.94 1.14 1.29 1.04 1.48 1.25 1.14 1.21 1.64 1.18 0.87 0.96 1.11 1.48 1.54 2.05 2.21 2.23 2.43 2.38 2.41 3.09 3.50
0.49 0.48 0.53 0.58 0.52 0.41 0.40 0.46 0.41 0.44 0.45 0.50 0.90 1.16 0.60 0.64 0.88 1.26 1.68 1.44 2.07 1.52 0.89 0.71 0.77 0.95 0.54 0.52 0.51 0.54 0.35 0.67 0.56 0.73 0.54 0.57 0.43 0.38 0.62 0.55 0.42 2.07 1.40 1.28 1.85 1.58 1.06 1.31 1.05 1.65 1.75 1.62 2.04 1.47 1.30 1.33 1.22 1.19 0.87 1.43 1.32 0.82 1.27 0.85 0.84 1.23 1.25 1.38 1.55 1.25 1.23 1.33 1.23 1.09 0.68 0.90 0.85 1.37 2.20 1.90 1.36 2.23 2.07 2.22 2.05 3.21 3.49
0.63 0.51 0.46 0.41 0.41 0.46 0.45 0.51 0.45 0.44 0.39 0.68 1.24 1.30 0.63 0.47 0.64 0.97 1.54 1.52 1.08 1.11 0.74 0.61 0.71 0.66 0.58 0.67 0.57 0.51 0.49 0.56 0.37 0.48 0.68 0.87 0.54 0.47 0.86 0.76 0.45 0.48 0.64 0.74 0.93 1.08 0.90 1.06 1.21 1.57 1.70 1.77 1.80 1.39 1.33 1.00 0.91 1.36 1.27 1.35 1.41 1.39 1.09 0.87 0.69 1.03 0.97 0.99 1.55 2.08 1.88 2.68 1.05 1.46 1.55 1.37 2.03 2.44 1.97 1.66 1.50 1.89 2.24 1.84 2.08 2.64 3.23
0.57 0.61 0.49 0.51 0.45 0.47 0.55 0.47 0.58 0.66 0.61 0.74 0.75 1.03 0.72 0.47 0.61 0.63 0.92 1.55 1.64 1.13 0.42 0.25 0.39 0.47 0.60 0.62 0.51 0.53 0.63 0.75 0.83 0.79 0.58 0.71 0.98 1.22 1.35 1.05 1.29 1.03 0.80 0.74 0.89 0.86 0.96 1.07 1.25 1.32 1.51 1.94 2.52 2.43 1.58 1.10 1.05 0.82 1.03 1.92 1.51 2.41 1.40 0.81 0.81 0.99 1.76 1.42 1.53 2.04 2.57 2.04 1.22 1.53 2.44 1.88 1.80 1.73 1.83 1.78 1.70 1.27 1.67 2.53 2.68 2.22 2.40
0.45 0.48 0.49 0.48 0.48 0.56 0.54 0.46 0.49 0.82 0.74 0.75 0.78 1.23 0.78 0.43 0.46 0.46 0.63 1.26 1.41 0.72 0.31 0.19 0.35 0.38 0.24 0.43 0.56 0.63 0.64 0.70 0.55 0.69 0.86 0.91 0.68 1.08 0.98 1.01 1.11 1.31 1.28 1.04 1.21 0.86 1.05 1.45 1.73 1.29 1.47 1.82 1.67 1.54 1.79 1.89 1.39 1.17 1.22 1.43 2.56 1.22 2.13 1.72 1.68 1.38 1.81 1.59 1.78 1.61 1.40 1.71 1.70 1.65 1.64 1.64 1.66 1.34 1.34 1.25 1.19 1.67 1.78 1.68 1.65 1.74 1.89
0.43 0.44 0.61 0.53 0.51 0.61 0.52 0.55 0.68 0.70 0.62 0.59 0.97 1.48 0.75 0.50 0.61 0.44 0.77 1.28 0.88 0.64 0.30 0.19 0.22 0.19 0.29 0.19 0.11 0.31 0.55 0.21 0.30 0.77 0.37 0.74 1.14 0.98 1.24 1.39 1.75 0.90 1.43 1.47 1.81 1.45 1.41 1.41 1.37 1.41 1.68 1.61 2.02 1.95 1.57 1.37 1.72 1.53 1.68 1.65 2.41 1.93 2.17 2.21 1.06 1.37 1.31 1.19 1.44 1.49 1.43 1.23 1.19 1.78 2.00 1.63 1.38 1.29 1.15 1.19 1.30 1.38 1.90 1.83 2.19 1.61 1.37
0.37 0.42 0.50 0.56 0.50 0.58 0.69 0.82 0.71 0.68 0.66 0.74 0.87 1.39 0.84 0.64 0.57 0.83 0.83 0.91 0.97 0.66 0.39 0.26 0.34 0.25 0.15 0.08 0.04 0.08 0.16 0.25 0.21 0.27 0.34 0.79 0.78 0.66 0.83 1.13 0.89 1.10 1.28 1.06 1.17 1.58 1.55 1.25 1.43 1.80 1.61 1.27 1.73 1.74 2.35 2.51 1.20 1.74 1.70 1.38 1.53 1.53 1.88 1.81 1.44 1.30 1.37 1.33 1.82 1.77 1.97 1.15 1.26 1.48 1.39 0.88 0.94 0.92 1.10 1.23 1.45 1.59 1.69 1.67 1.50 1.55 1.01
0.58 0.49 0.49 0.59 0.55 0.54 0.71 0.80 0.71 0.65 0.71 0.71 0.96 0.85 1.12 1.02 0.80 0.87 1.14 1.05 0.71 0.67 0.48 0.23 0.16 0.14 0.11 0.10 0.19 0.30 0.16 0.13 0.09 0.13 0.20 0.32 0.45 0.65 1.23 1.27 0.64 0.84 1.19 1.00 1.31 0.94 0.73 1.12 1.27 1.46 1.20 1.32 1.56 1.56 1.26 1.76 1.81 1.49 1.95 1.72 2.05 2.25 1.98 2.22 1.31 1.54 1.67 1.67 1.86 1.46 1.45 0.94 0.99 1.46 1.70 1.34 0.96 0.64 0.69 1.13 1.37 1.50 1.31 1.44 1.21 1.33 1.26
0.55 0.62 0.63 0.52 0.58 0.61 0.66 0.55 0.63 0.72 0.67 0.88 1.06 1.34 1.29 0.72 0.71 0.80 1.24 0.98 0.89 1.06 0.77 0.25 0.12 0.07 0.05 0.07 0.09 0.06 0.04 0.14 0.08 0.13 0.17 0.35 0.61 0.64 0.36 0.30 0.36 0.41 0.72 0.65 1.10 0.91 0.90 0.78 0.58 1.04 1.30 1.18 1.25 1.29 1.40 1.15 2.28 1.96 2.09 2.56 1.92 2.31 1.82 2.17 2.28 2.43 1.96 1.34 1.05 1.09 1.14 1.28 1.13 1.30 1.29 1.66 1.48 1.09 0.83 0.88 1.33 1.69 1.71 1.42 1.29 1.21 1.15
0.48 0.48 0.69 0.71 0.54 0.58 0.61 0.58 0.63 0.66 0.76 0.82 1.35 1.20 1.01 0.90 0.67 1.02 0.94 0.84 1.08 0.81 0.60 0.35 0.16 0.10 0.08 0.06 0.03 0.05 0.04 0.06 0.06 0.08 0.10 0.26 0.43 0.33 0.28 0.29 0.55 0.68 0.63 0.89 0.70 0.83 0.90 1.00 0.64 1.04 0.84 1.08 1.06 1.28 1.16 1.37 1.36 1.33 1.30 1.59 2.15 2.11 2.32 2.13 2.16 1.83 2.20 2.85 2.48 1.11 2.10 2.07 1.45 1.22 1.33 1.39 1.12 1.18 0.86 0.71 0.97 1.06 1.62 1.83 1.31 1.30 0.76
0.51 0.55 0.52 0.72 0.71 0.64 0.69 0.67 0.60 0.62 0.72 0.95 1.15 1.03 1.07 1.17 0.88 0.77 0.70 1.00 1.19 0.80 0.74 0.39 0.29 0.34 0.32 0.12 0.05 0.03 0.03 0.02 0.03 0.05 0.10 0.12 0.12 0.14 0.25 0.37 0.42 0.52 0.48 0.67 0.65 0.73 0.80 0.93 1.00 0.45 0.62 0.81 0.68 0.94 0.88 0.92 1.02 0.89 0.97 1.22 1.38 2.20 2.77 3.25 3.04 2.73 2.73 2.57 2.12 2.24 1.85 1.61 1.87 1.46 1.16 1.24 1.16 1.10 1.59 1.67 1.34 1.22 1.19 1.04 1.09 1.55 1.19
0.53 0.51 0.56 0.57 0.72 0.76 0.68 0.77 0.79 0.81 0.89 1.36 1.78 1.67 1.45 1.06 0.93 0.98 0.81 0.94 0.96 1.27 0.75 0.46 0.36 0.31 0.28 0.37 0.06 0.03 0.02 0.03 0.06 0.14 0.10 0.12 0.15 0.22 0.25 0.26 0.35 0.41 0.47 0.46 0.47 0.38 0.48 0.76 0.80 0.51 0.82 0.84 0.83 0.97 1.00 0.82 0.59 0.67 0.80 1.04 0.98 1.15 1.72 1.93 2.10 2.15 1.82 1.79 1.93 1.71 1.71 2.12 1.97 1.74 1.38 1.18 1.05 1.11 1.48 1.64 2.04 2.08 1.60 1.06 0.93 1.38 1.15
0.68 0.62 0.59 0.66 0.60 0.82 0.82 0.90 0.96 1.04 1.16 1.76 1.99 2.17 1.89 1.49 0.82 0.79 0.65 0.77 0.99 1.38 1.19 0.76 0.47 0.21 0.17 0.12 0.10 0.12 0.11 0.08 0.06 0.07 0.07 0.11 0.20 0.32 0.25 0.23 0.35 0.33 0.46 0.43 0.42 0.42 0.33 0.53 0.81 0.72 1.01 0.48 0.96 0.91 0.66 1.05 0.64 0.74 0.59 0.57 0.49 0.91 0.87 1.12 1.14 1.53 2.01 1.27 1.30 1.57 1.54 1.44 1.15 0.83 1.12 1.04 0.97 1.38 1.36 1.17 1.60 2.76 2.49 1.82 1.86 0.99 0.69
0.75 0.70 0.70 0.73 0.69 0.74 0.98 0.86 0.98 1.18 1.59 2.02 2.09 1.72 1.37 1.01 0.82 0.39 0.50 0.55 0.91 1.30 1.44 0.72 0.55 0.27 0.17 0.12 0.09 0.08 0.10 0.16 0.13 0.12 0.09 0.11 0.13 0.16 0.23 0.30 0.32 0.34 0.61 0.53 0.44 0.31 0.27 0.41 0.63 0.69 0.97 0.29 0.43 0.77 0.74 0.78 0.72 0.87 0.41 0.50 0.60 0.81 0.58 0.61 0.69 0.77 0.77 0.91 1.24 1.35 1.17 1.09 0.96 0.79 0.69 0.94 0.75 0.95 1.45 2.05 1.27 1.43 1.90 1.48 1.15 0.75 0.66
0.70 0.70 0.71 0.76 0.70 0.80 0.85 0.94 1.10 1.37 1.90 1.66 1.50 0.94 0.86 0.80 1.28 0.67 0.50 0.67 1.22 1.60 1.22 0.89 0.50 0.27 0.19 0.12 0.06 0.03 0.04 0.06 0.10 0.12 0.26 0.24 0.34 0.20 0.36 0.36 0.56 0.40 0.36 0.39 0.32 0.33 0.40 0.36 0.22 0.18 0.41 0.30 0.32 0.83 0.88 0.73 0.54 0.49 0.41 0.35 0.62 0.38 0.40 0.51 0.65 0.87 1.01 0.81 0.82 1.12 1.11 0.78 0.60 0.65 0.49 0.44 0.52 0.47 0.61 0.84 1.15 1.76 2.05 2.15 1.37 1.51 1.48
0.79 0.76 0.89 0.91 0.74 0.80 0.88 0.97 1.16 1.89 1.85 1.37 0.69 0.55 0.40 0.33 0.58 0.85 0.42 1.15 1.81 1.97 1.31 0.85 0.58 0.37 0.26 0.21 0.06 0.01 0.01 0.06 0.11 0.20 0.32 0.15 0.29 0.29 0.37 0.34 0.34 0.42 0.37 0.42 0.59 0.36 0.22 0.17 0.06 0.20 0.22 0.29 0.37 0.33 0.54 0.54 0.63 0.41 0.27 0.23 0.18 0.39 0.55 0.61 0.79 0.67 0.35 0.32 0.44 0.98 0.93 0.59 0.46 0.47 0.95 0.65 0.44 0.44 0.38 0.36 0.62 0.95 1.47 1.70 1.22 0.99 0.36
0.87 0.81 0.88 1.02 0.90 0.92 1.13 1.20 1.35 2.07 1.91 2.09 1.80 0.97 0.68 0.41 0.41 0.60 1.37 1.27 1.81 1.73 1.31 0.86 0.70 0.33 0.18 0.14 0.19 0.33 0.01 0.18 0.29 0.11 0.20 0.24 0.20 0.26 0.34 0.34 0.51 0.45 0.66 0.38 0.37 0.22 0.17 0.11 0.19 0.12 0.23 0.22 0.28 0.47 0.17 0.37 0.11 0.10 0.12 0.19 0.13 0.29 0.17 0.34 0.35 0.51 0.42 0.62 0.45 0.61 0.73 0.86 0.69 0.25 0.41 0.53 0.37 0.23 0.19 0.19 0.28 0.52 0.48 0.61 0.62 0.41 0.44
1.16 1.06 0.94 1.02 1.17 1.47 1.53 1.66 2.15 2.08 2.00 1.46 1.03 0.93 0.55 0.42 0.38 0.72 1.01 1.33 1.36 1.42 1.20 0.92 0.37 0.46 0.17 0.13 0.13 0.27 0.21 0.15 0.47 0.19 0.12 0.19 0.09 0.26 0.40 0.27 0.65 0.44 0.55 0.29 0.39 0.24 0.21 0.21 0.12 0.28 0.38 0.09 0.19 0.27 0.09 0.25 0.12 0.08 0.07 0.14 0.17 0.36 0.10 0.15 0.33 0.44 0.45 0.52 0.34 0.28 0.38 0.49 0.59 0.56 0.35 0.34 0.20 0.11 0.07 0.05 0.14 0.18 0.21 0.28 0.33 0.27 0.35
1.26 1.22 1.24 1.30 1.66 2.13 3.03 3.03 1.94 2.05 1.70 1.15 0.85 0.55 0.42 0.53 0.54 0.75 0.85 0.89 1.07 1.39 0.64 0.51 0.33 0.21 0.15 0.28 0.16 0.25 0.04 0.20 0.25 0.31 0.19 0.35 0.31 0.27 0.40 0.30 0.56 0.21 0.24 0.18 0.22 0.16 0.14 0.29 0.13 0.39 0.09 0.19 0.15 0.15 0.17 0.08 0.09 0.13 0.09 0.14 0.15 0.17 0.37 0.31 0.35 0.22 0.17 0.32 0.30 0.35 0.28 0.47 0.76 0.39 0.31 0.30 0.45 0.31 0.08 0.07 0.06 0.19 0.17 0.09 0.16 0.19 0.32
1.68 1.64 1.88 2.26 3.34 3.93 3.02 2.22 1.59 0.93 1.02 0.66 0.62 0.53 0.84 0.81 1.52 1.56 1.95 2.04 1.41 0.94 1.27 0.77 0.43 0.19 0.07 0.18 0.25 0.24 0.09 0.25 0.24 0.26 0.38 0.23 0.29 0.33 0.34 0.32 0.25 0.42 0.23 0.28 0.11 0.17 0.09 0.07 0.20 0.14 0.11 0.15 0.15 0.11 0.08 0.07 0.14 0.11 0.11 0.11 0.15 0.28 0.25 0.51 0.38 0.19 0.37 0.28 0.50 0.31 0.34 0.26 0.23 0.13 0.32 0.26 0.09 0.09 0.06 0.08 0.09 0.05 0.06 0.10 0.16 0.48 0.44
1.86 2.07 2.85 4.06 3.06 2.62 2.28 1.64 1.37 0.98 0.50 0.69 0.79 1.40 2.34 2.48 2.76 2.40 2.70 1.97 1.91 1.64 1.07 1.00 0.60 0.21 0.12 0.20 0.17 0.16 0.03 0.30 0.23 0.36 0.24 0.22 0.25 0.32 0.22 0.16 0.38 0.31 0.42 0.18 0.07 0.02 0.14 0.29 0.34 0.17 0.04 0.10 0.11 0.12 0.22 0.16 0.09 0.19 0.18 0.26 0.32 0.27 0.23 0.26 0.53 0.46 0.32 0.19 0.17 0.17 0.17 0.31 0.08 0.06 0.07 0.08 0.06 0.10 0.08 0.06 0.06 0.08 0.12 0.15 0.20 0.25 0.27
2.48 3.71 3.21 2.80 1.67 1.33 1.06 1.47 0.70 0.63 0.87 1.35 1.44 1.50 2.06 1.44 1.57 1.77 1.46 1.09 1.69 1.32 0.90 0.87 0.56 0.21 0.25 0.13 0.16 0.07 0.08 0.46 0.25 0.55 0.41 1.67 0.28 0.71 0.32 0.41 0.64 0.06 0.27 0.12 0.16 0.04 0.41 0.19 0.15 0.09 0.14 0.34 0.45 0.26 0.08 0.08 0.12 0.15 0.36 0.53 0.37 0.51 0.33 0.26 0.20 0.19 0.18 0.18 0.15 0.19 0.25 0.37 0.24 0.14 0.08 0.10 0.10 0.12 0.07 0.09 0.15 0.17 0.15 0.30 0.30 0.28 0.33
3.53 3.08 2.53 1.92 1.15 0.93 0.83 0.75 0.77 1.35 2.09 2.22 2.00 1.03 1.81 1.27 0.78 1.11 0.83 0.72 0.72 0.40 0.67 0.52 0.21 0.17 0.10 0.21 0.13 0.27 0.07 0.18 0.34 0.34 0.21 0.34 0.31 0.44 2.04 0.11 1.65 0.19 0.39 0.12 0.22 0.05 0.12 0.20 0.22 0.19 0.20 0.37 0.24 0.10 0.10 0.30 0.21 0.23 0.45 0.57 0.48 0.25 0.32 0.18 0.19 0.14 0.14 0.13 0.11 0.13 0.13 0.12 0.12 0.13 0.18 0.10 0.17 0.30 0.22 0.31 0.66 0.54 0.35 0.21 0.25 0.26 0.43
2.68 2.01 1.54 1.15 1.02 0.94 1.08 1.47 2.10 1.80 1.74 1.87 1.96 1.37 1.53 1.70 0.52 0.69 0.55 0.40 0.27 0.24 0.11 0.18 0.13 0.22 0.41 0.20 0.13 0.33 0.42 0.03 0.53 0.53 0.38 0.41 1.40 0.20 0.21 0.22 1.46 0.15 0.16 0.14 0.17 0.08 0.22 0.15 0.31 0.23 0.30 0.25 0.12 0.18 0.21 0.25 0.13 0.18 0.46 0.48 0.33 0.17 0.13 0.10 0.19 0.11 0.08 0.12 0.16 0.18 0.11 0.09 0.07 0.15 0.16 0.18 0.14 0.29 0.73 0.93 0.74 0.42 0.25 0.23 0.35 0.38 0.68
1.53 1.34 1.39 1.27 1.36 1.74 2.69 2.57 3.51 2.85 2.05 2.05 1.33 1.46 0.77 0.87 0.58 0.58 0.32 0.34 0.42 0.10 0.16 0.08 0.33 0.30 0.34 0.14 0.26 0.08 0.31 0.14 0.21 0.35 0.23 0.36 0.59 0.29 0.32 0.17 0.30 0.20 0.19 0.07 0.13 0.55 0.30 0.25 0.16 0.20 0.37 0.14 0.10 0.16 0.15 0.17 0.18 0.29 0.54 0.43 0.31 0.14 0.12 0.12 0.07 0.07 0.06 0.14 0.17 0.18 0.24 0.13 0.15 0.19 0.20 0.18 0.14 0.19 0.40 0.50 0.49 0.35 0.22 0.24 0.34 0.55 0.71
1.92 1.79 2.38 2.47 2.48 2.37 1.98 2.64 2.31 1.87 2.66 2.09 1.50 1.48 0.88 0.85 0.61 0.40 0.38 0.10 0.28 0.09 0.24 0.03 0.11 0.05 0.47 0.17 0.41 0.87 0.35 0.26 0.14 0.30 0.18 0.39 0.73 0.23 0.40 0.41 0.26 0.15 0.11 0.06 0.06 0.41 0.28 0.23 0.20 0.24 0.19 0.17 0.06 0.15 0.16 0.31 0.43 0.62 0.38 0.26 0.15 0.20 0.13 0.14 0.09 0.17 0.15 0.12 0.18 0.29 0.23 0.21 0.31 0.38 0.46 0.32 0.26 0.29 0.34 0.37 0.26 0.26 0.25 0.30 0.37 0.56 0.80
2.57 2.54 2.09 2.24 2.28 3.04 1.50 2.90 1.98 1.18 1.65 1.07 0.63 0.72 0.48 0.45 0.60 0.17 0.20 0.24 0.14 0.18 0.22 0.08 0.32 0.11 0.57 0.13 0.20 0.46 0.18 0.40 0.14 0.45 0.35 0.49 0.35 0.50 0.21 0.34 0.25 0.52 0.27 0.13 0.13 0.21 0.20 0.23 0.24 0.23 0.30 0.24 0.17 0.20 0.21 0.43 0.52 0.47 0.32 0.16 0.14 0.13 0.17 0.14 0.20 0.25 0.20 0.19 0.24 0.26 0.29 0.20 0.16 0.18 0.19 0.22 0.19 0.21 0.21 0.22 0.16 0.17 0.20 0.28 0.35 0.43 0.44
3.08 3.19 2.52 2.29 2.32 3.30 1.13 3.20 1.74 0.89 0.94 0.52 0.24 0.29 0.15 0.13 0.16 0.13 0.18 0.24 0.06 0.20 0.13 0.13 0.22 0.09 0.27 0.46 0.16 0.46 0.18 0.63 0.51 0.16 0.40 0.31 0.26 0.33 0.24 0.19 0.28 0.15 0.09 0.11 0.13 0.10 0.07 0.12 0.15 0.13 0.32 0.48 0.50 0.52 0.58 0.46 0.39 0.34 0.18 0.08 0.17 0.24 0.19 0.26 0.29 0.27 0.30 0.30 0.31 0.37 0.58 0.48 0.37 0.37 0.37 0.34 0.24 0.17 0.19 0.18 0.12 0.12 0.13 0.18 0.27 0.34 0.29
2.35 2.65 2.19 2.28 2.91 2.35 1.22 1.81 1.21 0.60 0.26 0.23 0.13 0.15 0.16 0.18 0.25 0.19 0.15 0.05 0.08 0.17 0.19 0.12 0.45 0.29 0.25 0.42 0.25 0.68 0.13 0.42 0.45 0.24 0.31 0.43 0.24 0.30 0.20 0.25 0.07 0.27 0.18 0.21 0.11 0.13 0.13 0.14 0.25 0.39 0.42 0.63 0.41 0.53 0.52 0.37 0.27 0.21 0.13 0.13 0.13 0.16 0.21 0.26 0.23 0.24 0.28 0.34 0.45 0.42 0.52 0.49 0.44 0.47 0.49 0.43 0.30 0.22 0.20 0.16 0.12 0.14 0.12 0.14 0.12 0.21 0.19
2.38 1.90 1.65 1.33 1.53 1.07 0.59 0.90 0.40 0.17 0.15 0.12 0.18 0.11 0.18 0.18 0.14 0.22 0.23 0.08 0.19 0.51 0.20 0.24 0.29 0.22 0.40 0.44 0.18 0.33 0.34 0.32 0.36 0.54 0.12 0.27 0.19 0.19 0.35 0.30 0.32 0.13 0.08 0.07 0.06 0.11 0.16 0.37 0.35 0.39 0.48 0.35 0.55 0.60 0.62 0.46 0.34 0.32 0.17 0.16 0.13 0.18 0.22 0.25 0.19 0.27 0.35 0.38 0.33 0.35 0.34 0.34 0.34 0.33 0.26 0.24 0.23 0.21 0.21 0.20 0.17 0.13 0.13 0.13 0.11 0.11 0.18
2.66 1.74 1.30 1.76 1.22 0.59 0.49 0.31 0.22 0.19 0.13 0.17 0.15 0.17 0.19 0.18 0.15 0.26 0.23 0.16 0.14 0.17 0.32 0.32 0.77 0.79 0.46 1.93 0.19 0.49 0.91 0.87 0.32 0.46 0.20 0.25 0.35 0.16 0.31 0.22 0.16 0.14 0.09 0.07 0.15 0.29 0.21 0.34 0.28 0.22 0.32 0.32 0.47 0.51 0.55 0.51 0.52 0.33 0.24 0.27 0.23 0.22 0.20 0.20 0.22 0.22 0.25 0.25 0.25 0.22 0.22 0.23 0.28 0.20 0.19 0.17 0.19 0.16 0.18 0.14 0.12 0.13 0.11 0.10 0.09 0.09 0.09
1.91 1.75 1.37 0.97 0.66 0.36 0.17 0.24 0.28 0.34 0.30 0.26 0.23 0.09 0.19 0.19 0.24 0.29 0.18 0.17 0.19 0.37 0.39 0.33 0.65 0.42 0.72 0.98 0.69 0.76 0.55 0.87 0.32 0.82 0.40 0.41 0.27 0.18 0.15 0.10 0.05 0.04 0.24 0.13 0.26 0.28 0.41 0.31 0.24 0.25 0.37 0.51 0.48 0.53 0.86 0.56 0.41 0.80 0.33 0.39 0.35 0.18 0.16 0.24 0.34 0.22 0.22 0.24 0.19 0.18 0.18 0.13 0.11 0.12 0.09 0.08 0.09 0.11 0.08 0.08 0.07 0.06 0.06 0.07 0.08 0.09 0.11
2.13 1.88 0.98 0.83 0.48 0.29 0.28 0.39 0.38 0.43 0.29 0.26 0.42 0.33 0.23 0.42 0.44 0.21 0.08 0.14 0.16 0.32 0.53 0.61 0.55 0.43 1.29 0.56 0.86 0.51 0.69 0.87 0.35 0.65 0.34 0.33 0.25 0.31 0.20 0.12 0.11 0.15 0.47 0.40 0.47 0.30 0.32 0.31 0.38 0.41 0.46 0.57 0.53 0.53 0.66 0.59 0.68 0.59 0.57 0.43 0.17 0.07 0.60 0.36 0.21 0.21 0.17 0.13 0.10 0.11 0.12 0.13 0.12 0.09 0.05 0.04 0.05 0.05 0.05 0.05 0.05 0.07 0.06 0.07 0.08 0.07 0.09
1.99 1.74 1.18 0.47 0.40 0.43 0.34 0.41 0.38 0.30 0.32 0.59 0.55 0.40 0.31 0.45 0.46 0.42 0.32 0.32 0.39 0.40 0.64 0.62 0.69 0.56 1.08 0.67 0.96 0.77 0.60 0.47 0.65 0.43 0.33 0.36 0.42 0.30 0.25 0.18 0.38 0.25 0.32 0.19 0.31 0.54 0.41 0.34 0.43 0.48 0.49 0.61 0.54 0.45 0.36 0.39 0.31 0.42 0.37 0.34 0.20 0.12 0.08 0.15 0.11 0.12 0.11 0.07 0.03 0.01 0.04 0.03 0.02 0.01 0.01 0.00 0.00 0.01 0.01 0.01 0.00 0.01 0.02 0.03 0.03 0.03 0.05
1.69 1.43 1.09 0.46 0.29 0.39 0.35 0.67 0.63 0.51 0.49 0.56 0.48 0.60 0.20 0.52 0.40 0.51 0.36 0.34 0.85 0.42 0.47 0.38 0.41 0.83 0.65 0.66 0.48 0.40 0.67 0.89 0.55 0.30 0.24 0.21 0.13 0.18 0.32 0.21 0.34 0.36 0.35 0.29 0.21 0.19 0.21 0.41 0.44 0.44 0.48 0.46 0.42 0.34 0.28 0.14 0.10 0.19 0.11 0.11 0.09 0.05 0.05 0.06 0.06 0.05 0.04 0.02 0.03 0.04 0.04 0.02 0.03 0.02 0.01 0.01 0.00 0.02 0.02 0.04 0.03 0.02 0.01 0.06 0.06 0.05 0.02